Time,TemperatureF,DewpointF,PressureIn,WindDirection,WindDirectionDegrees,WindSpeedMPH,WindSpeedGustMPH,Humidity,HourlyPrecipIn,Conditions,Clouds,dailyrainin,SoftwareType,DateUTC
2013-01-04 00:00:00,28.3,23.5,30.14,SW,230,2.0,7.0,82,0.00,,---,0.00,VWS V14.01,2013-01-04 05:00:00,
2013-01-04 00:02:00,28.4,23.9,30.14,SW,225,3.0,3.0,83,0.00,,---,0.00,VWS V14.01,2013-01-04 05:02:00,
2013-01-04 00:03:00,28.4,23.9,30.14,SW,215,3.0,3.0,83,0.00,,---,0.00,VWS V14.01,2013-01-04 05:03:00,
2013-01-04 00:05:00,28.8,24.3,30.10,WSW,246,5.0,13.0,83,0.00,,---,0.00,VWS V14.01,2013-01-04 05:05:00,
2013-01-04 00:08:00,28.4,23.9,30.14,SW,236,2.0,5.0,83,0.00,,---,0.00,VWS V14.01,2013-01-04 05:08:00,
2013-01-04 00:10:00,28.8,24.3,30.10,SW,214,9.0,14.0,83,0.00,,---,0.00,VWS V14.01,2013-01-04 05:10:00,
2013-01-04 00:13:00,28.5,24.0,30.13,SW,222,2.0,7.0,83,0.00,,---,0.00,VWS V14.01,2013-01-04 05:13:00,
2013-01-04 00:15:00,28.9,24.4,30.10,SW,229,6.0,12.0,83,0.00,,---,0.00,VWS V14.01,2013-01-04 05:15:00,
2013-01-04 00:18:00,28.5,24.0,30.14,SW,222,1.0,5.0,83,0.00,,---,0.00,VWS V14.01,2013-01-04 05:18:00,
2013-01-04 00:20:00,28.9,24.4,30.10,South,176,4.0,14.0,83,0.00,,---,0.00,VWS V14.01,2013-01-04 05:20:00,
2013-01-04 00:23:00,28.5,24.0,30.13,West,269,1.0,7.0,83,0.00,,---,0.00,VWS V14.01,2013-01-04 05:23:00,
2013-01-04 00:25:00,28.9,24.4,30.10,SW,219,5.0,10.0,83,0.00,,---,0.00,VWS V14.01,2013-01-04 05:25:00,
2013-01-04 00:28:00,28.5,24.0,30.13,WSW,240,6.0,9.0,83,0.00,,---,0.00,VWS V14.01,2013-01-04 05:28:00,
2013-01-04 00:30:00,29.0,24.2,30.10,SSW,195,7.0,20.0,82,0.00,,---,0.00,VWS V14.01,2013-01-04 05:30:00,
2013-01-04 00:33:00,28.6,24.1,30.12,SSW,200,6.0,8.0,83,0.00,,---,0.00,VWS V14.01,2013-01-04 05:33:00,
2013-01-04 00:35:00,29.2,24.1,30.09,WSW,240,4.0,14.0,81,0.00,,---,0.00,VWS V14.01,2013-01-04 05:35:00,
2013-01-04 00:38:00,28.6,24.1,30.12,SW,218,9.0,9.0,83,0.00,,---,0.00,VWS V14.01,2013-01-04 05:38:00,
2013-01-04 00:40:00,29.2,24.1,30.09,SW,224,2.0,11.0,81,0.00,,---,0.00,VWS V14.01,2013-01-04 05:40:00,
2013-01-04 00:43:00,28.7,24.2,30.12,SW,214,1.0,7.0,83,0.00,,---,0.00,VWS V14.01,2013-01-04 05:43:00,
2013-01-04 00:45:00,29.1,24.3,30.09,SSW,212,1.0,9.0,82,0.00,,---,0.00,VWS V14.01,2013-01-04 05:45:00,
2013-01-04 00:48:00,28.7,24.2,30.11,WSW,253,3.0,7.0,83,0.00,,---,0.00,VWS V14.01,2013-01-04 05:48:00,
2013-01-04 00:50:00,29.2,24.1,30.09,SW,236,6.0,20.0,81,0.00,,---,0.00,VWS V14.01,2013-01-04 05:50:00,
2013-01-04 00:53:00,28.7,24.2,30.11,SSW,209,6.0,13.0,83,0.00,,---,0.00,VWS V14.01,2013-01-04 05:53:00,
2013-01-04 00:55:00,29.1,24.0,30.09,WSW,244,14.0,14.0,81,0.00,,---,0.00,VWS V14.01,2013-01-04 05:55:00,
2013-01-04 00:58:00,28.8,24.3,30.11,SW,229,0.0,10.0,83,0.00,,---,0.00,VWS V14.01,2013-01-04 05:58:00,
2013-01-04 01:00:00,28.9,23.5,30.09,WSW,248,8.0,16.0,80,0.00,,---,0.00,VWS V14.01,2013-01-04 06:00:00,
2013-01-04 01:03:00,28.8,24.3,30.11,SW,229,11.0,13.0,83,0.00,,---,0.00,VWS V14.01,2013-01-04 06:03:00,
2013-01-04 01:05:00,28.7,23.3,30.10,SSW,208,5.0,11.0,80,0.00,,---,0.00,VWS V14.01,2013-01-04 06:05:00,
2013-01-04 01:08:00,28.8,24.3,30.10,South,169,7.0,11.0,83,0.00,,---,0.00,VWS V14.01,2013-01-04 06:08:00,
2013-01-04 01:10:00,28.5,23.4,30.10,SW,225,6.0,9.0,81,0.00,,---,0.00,VWS V14.01,2013-01-04 06:10:00,
2013-01-04 01:13:00,28.8,24.3,30.10,SW,224,2.0,12.0,83,0.00,,---,0.00,VWS V14.01,2013-01-04 06:13:00,
2013-01-04 01:15:00,28.4,23.3,30.10,SW,219,1.0,15.0,81,0.00,,---,0.00,VWS V14.01,2013-01-04 06:15:00,
2013-01-04 01:18:00,28.9,24.4,30.10,WSW,240,6.0,11.0,83,0.00,,---,0.00,VWS V14.01,2013-01-04 06:18:00,
2013-01-04 01:20:00,28.3,23.5,30.10,SSW,194,8.0,11.0,82,0.00,,---,0.00,VWS V14.01,2013-01-04 06:20:00,
2013-01-04 01:23:00,28.9,24.4,30.10,SSW,204,6.0,10.0,83,0.00,,---,0.00,VWS V14.01,2013-01-04 06:23:00,
2013-01-04 01:25:00,28.2,23.4,30.09,SW,228,7.0,13.0,82,0.00,,---,0.00,VWS V14.01,2013-01-04 06:25:00,
2013-01-04 01:28:00,28.9,24.4,30.10,SSE,150,1.0,7.0,83,0.00,,---,0.00,VWS V14.01,2013-01-04 06:28:00,
2013-01-04 01:30:00,28.2,23.4,30.09,SSW,200,9.0,17.0,82,0.00,,---,0.00,VWS V14.01,2013-01-04 06:30:00,
2013-01-04 01:33:00,29.0,23.9,30.09,SW,234,11.0,12.0,81,0.00,,---,0.00,VWS V14.01,2013-01-04 06:33:00,
2013-01-04 01:35:00,28.2,23.4,30.09,SW,215,6.0,17.0,82,0.00,,---,0.00,VWS V14.01,2013-01-04 06:35:00,
2013-01-04 01:38:00,29.2,24.1,30.09,SW,221,3.0,11.0,81,0.00,,---,0.00,VWS V14.01,2013-01-04 06:38:00,
2013-01-04 01:40:00,28.3,23.5,30.09,SSW,209,5.0,13.0,82,0.00,,---,0.00,VWS V14.01,2013-01-04 06:40:00,
2013-01-04 01:43:00,29.2,24.4,30.09,WSW,255,3.0,6.0,82,0.00,,---,0.00,VWS V14.01,2013-01-04 06:43:00,
2013-01-04 01:45:00,28.3,23.5,30.10,WSW,251,4.0,20.0,82,0.00,,---,0.00,VWS V14.01,2013-01-04 06:45:00,
2013-01-04 01:48:00,29.1,24.0,30.09,West,273,2.0,10.0,81,0.00,,---,0.00,VWS V14.01,2013-01-04 06:48:00,
2013-01-04 01:50:00,28.3,23.5,30.09,WSW,245,5.0,15.0,82,0.00,,---,0.00,VWS V14.01,2013-01-04 06:50:00,
2013-01-04 01:53:00,29.2,24.1,30.09,SW,221,10.0,13.0,81,0.00,,---,0.00,VWS V14.01,2013-01-04 06:53:00,
2013-01-04 01:55:00,28.3,23.5,30.09,WSW,257,5.0,10.0,82,0.00,,---,0.00,VWS V14.01,2013-01-04 06:55:00,
2013-01-04 01:58:00,29.1,24.0,30.10,SW,231,3.0,14.0,81,0.00,,---,0.00,VWS V14.01,2013-01-04 06:58:00,
2013-01-04 02:00:00,28.3,23.5,30.09,SW,235,6.0,14.0,82,0.00,,---,0.00,VWS V14.01,2013-01-04 07:00:00,
2013-01-04 02:03:00,28.9,23.5,30.09,SW,224,5.0,10.0,80,0.00,,---,0.00,VWS V14.01,2013-01-04 07:03:00,
2013-01-04 02:05:00,28.3,23.5,30.09,WSW,243,11.0,14.0,82,0.00,,---,0.00,VWS V14.01,2013-01-04 07:05:00,
2013-01-04 02:08:00,28.6,23.2,30.10,West,263,4.0,9.0,80,0.00,,---,0.00,VWS V14.01,2013-01-04 07:08:00,
2013-01-04 02:10:00,28.4,23.3,30.09,SW,234,6.0,22.0,81,0.00,,---,0.00,VWS V14.01,2013-01-04 07:10:00,
2013-01-04 02:13:00,28.4,23.3,30.10,SW,229,8.0,15.0,81,0.00,,---,0.00,VWS V14.01,2013-01-04 07:13:00,
2013-01-04 02:15:00,28.4,23.3,30.09,SW,228,12.0,17.0,81,0.00,,---,0.00,VWS V14.01,2013-01-04 07:15:00,
2013-01-04 02:18:00,28.3,23.2,30.10,SSW,211,5.0,10.0,81,0.00,,---,0.00,VWS V14.01,2013-01-04 07:18:00,
2013-01-04 02:20:00,28.4,23.3,30.09,WSW,250,7.0,18.0,81,0.00,,---,0.00,VWS V14.01,2013-01-04 07:20:00,
2013-01-04 02:23:00,28.2,23.4,30.10,WSW,245,11.0,11.0,82,0.00,,---,0.00,VWS V14.01,2013-01-04 07:23:00,
2013-01-04 02:25:00,28.4,23.3,30.08,SW,222,14.0,22.0,81,0.00,,---,0.00,VWS V14.01,2013-01-04 07:25:00,
2013-01-04 02:28:00,28.2,23.4,30.10,NW,309,10.0,16.0,82,0.00,,---,0.00,VWS V14.01,2013-01-04 07:28:00,
2013-01-04 02:30:00,28.3,23.2,30.08,SW,232,6.0,16.0,81,0.00,,---,0.00,VWS V14.01,2013-01-04 07:30:00,
2013-01-04 02:33:00,28.2,23.4,30.10,SW,217,9.0,12.0,82,0.00,,---,0.00,VWS V14.01,2013-01-04 07:33:00,
2013-01-04 02:35:00,28.3,23.2,30.08,SW,225,7.0,16.0,81,0.06,,---,0.00,VWS V14.01,2013-01-04 07:35:00,
2013-01-04 02:38:00,28.3,23.5,30.09,SW,221,5.0,9.0,82,0.00,,---,0.00,VWS V14.01,2013-01-04 07:38:00,
2013-01-04 02:40:00,28.2,23.1,30.08,SW,225,6.0,17.0,81,0.06,,---,0.00,VWS V14.01,2013-01-04 07:40:00,
2013-01-04 02:43:00,28.3,23.5,30.09,WSW,252,11.0,20.0,82,0.00,,---,0.00,VWS V14.01,2013-01-04 07:43:00,
2013-01-04 02:45:00,28.1,23.3,30.08,SW,225,7.0,17.0,82,0.06,,---,0.00,VWS V14.01,2013-01-04 07:45:00,
2013-01-04 02:48:00,28.3,23.5,30.10,NNW,328,3.0,15.0,82,0.00,,---,0.00,VWS V14.01,2013-01-04 07:48:00,
2013-01-04 02:50:00,28.0,23.2,30.08,SW,225,7.0,19.0,82,0.06,,---,0.00,VWS V14.01,2013-01-04 07:50:00,
2013-01-04 02:53:00,28.3,23.5,30.09,SW,231,5.0,6.0,82,0.00,,---,0.00,VWS V14.01,2013-01-04 07:53:00,
2013-01-04 02:55:00,28.0,23.2,30.08,SW,225,7.0,17.0,82,0.06,,---,0.00,VWS V14.01,2013-01-04 07:55:00,
2013-01-04 02:58:00,28.3,23.5,30.09,SW,229,6.0,11.0,82,0.00,,---,0.00,VWS V14.01,2013-01-04 07:58:00,
2013-01-04 03:00:00,27.9,23.1,30.07,SW,225,6.0,16.0,82,0.06,,---,0.00,VWS V14.01,2013-01-04 08:00:00,
2013-01-04 03:03:00,28.3,23.5,30.09,SSW,203,8.0,14.0,82,0.00,,---,0.00,VWS V14.01,2013-01-04 08:03:00,
2013-01-04 03:05:00,27.7,22.9,30.08,SW,225,7.0,15.0,82,0.06,,---,0.00,VWS V14.01,2013-01-04 08:05:00,
2013-01-04 03:08:00,28.3,23.5,30.09,WSW,240,11.0,14.0,82,0.00,,---,0.00,VWS V14.01,2013-01-04 08:08:00,
2013-01-04 03:10:00,27.7,22.9,30.07,SW,225,7.0,15.0,82,0.06,,---,0.00,VWS V14.01,2013-01-04 08:10:00,
2013-01-04 03:13:00,28.4,23.3,30.09,SSW,211,4.0,9.0,81,0.00,,---,0.00,VWS V14.01,2013-01-04 08:13:00,
2013-01-04 03:15:00,27.6,23.1,30.07,SW,225,6.0,17.0,83,0.06,,---,0.00,VWS V14.01,2013-01-04 08:15:00,
2013-01-04 03:18:00,28.4,23.3,30.09,SSW,208,6.0,14.0,81,0.00,,---,0.00,VWS V14.01,2013-01-04 08:18:00,
2013-01-04 03:20:00,27.6,23.1,30.07,SW,225,9.0,18.0,83,0.06,,---,0.00,VWS V14.01,2013-01-04 08:20:00,
2013-01-04 03:23:00,28.4,23.3,30.08,SSW,199,9.0,22.0,81,0.00,,---,0.00,VWS V14.01,2013-01-04 08:23:00,
2013-01-04 03:25:00,27.6,23.1,30.07,SW,225,8.0,16.0,83,0.06,,---,0.00,VWS V14.01,2013-01-04 08:25:00,
2013-01-04 03:28:00,28.4,23.3,30.09,SW,235,5.0,14.0,81,0.00,,---,0.00,VWS V14.01,2013-01-04 08:28:00,
2013-01-04 03:30:00,27.7,23.2,30.07,SW,225,9.0,17.0,83,0.06,,---,0.00,VWS V14.01,2013-01-04 08:30:00,
2013-01-04 03:33:00,28.3,23.2,30.08,WSW,248,4.0,13.0,81,0.00,,---,0.00,VWS V14.01,2013-01-04 08:33:00,
2013-01-04 03:35:00,28.3,23.2,30.08,SW,225,7.0,16.0,81,0.06,,---,0.00,VWS V14.01,2013-01-04 08:35:00,
2013-01-04 03:40:00,28.2,23.1,30.08,SW,225,6.0,17.0,81,0.06,,---,0.00,VWS V14.01,2013-01-04 08:40:00,
2013-01-04 03:45:00,28.1,23.0,30.08,SSW,201,10.0,17.0,82,0.00,,,0.00,weatherlink.com 1.10,2013-01-04 08:45:00,
2013-01-04 03:50:00,28.0,23.2,30.08,SW,225,7.0,19.0,82,0.06,,---,0.00,VWS V14.01,2013-01-04 08:50:00,
2013-01-04 03:55:00,28.0,23.2,30.08,SW,225,7.0,17.0,82,0.06,,---,0.00,VWS V14.01,2013-01-04 08:55:00,
2013-01-04 04:00:00,27.9,23.0,30.07,SSW,207,2.0,19.0,82,0.00,,,0.00,weatherlink.com 1.10,2013-01-04 09:00:00,
2013-01-04 04:05:00,27.7,22.9,30.08,SW,225,7.0,15.0,82,0.06,,---,0.00,VWS V14.01,2013-01-04 09:05:00,
2013-01-04 04:10:00,27.7,22.9,30.07,SW,225,7.0,15.0,82,0.06,,---,0.00,VWS V14.01,2013-01-04 09:10:00,
2013-01-04 04:15:00,27.5,23.0,30.07,SW,214,14.0,17.0,83,0.00,,,0.00,weatherlink.com 1.10,2013-01-04 09:15:00,
2013-01-04 04:20:00,27.6,23.1,30.07,SW,225,9.0,18.0,83,0.06,,---,0.00,VWS V14.01,2013-01-04 09:20:00,
2013-01-04 04:25:00,27.6,23.1,30.07,SW,225,8.0,16.0,83,0.06,,---,0.00,VWS V14.01,2013-01-04 09:25:00,
2013-01-04 04:30:00,27.7,23.0,30.07,West,265,6.0,17.0,83,0.00,,,0.00,weatherlink.com 1.10,2013-01-04 09:30:00,
2013-01-04 04:35:00,27.7,23.2,30.07,SW,225,7.0,16.0,83,0.06,,---,0.00,VWS V14.01,2013-01-04 09:35:00,
2013-01-04 04:40:00,27.7,23.5,30.07,SW,225,5.0,12.0,84,0.00,,---,0.00,VWS V14.01,2013-01-04 09:40:00,
2013-01-04 04:45:00,27.6,23.0,30.07,SSW,204,2.0,13.0,84,0.00,,,0.00,weatherlink.com 1.10,2013-01-04 09:45:00,
2013-01-04 04:50:00,27.6,23.4,30.07,SW,225,7.0,14.0,84,0.00,,---,0.00,VWS V14.01,2013-01-04 09:50:00,
2013-01-04 04:55:00,27.7,23.5,30.07,SW,225,7.0,18.0,84,0.00,,---,0.00,VWS V14.01,2013-01-04 09:55:00,
2013-01-04 05:00:00,27.8,23.3,30.07,SW,225,10.0,18.0,83,0.00,,---,0.00,VWS V14.01,2013-01-04 10:00:00,
2013-01-04 05:01:00,27.8,23.0,30.07,NW,307,7.0,18.0,83,0.00,,,0.00,weatherlink.com 1.10,2013-01-04 10:01:00,
2013-01-04 05:05:00,27.8,23.3,30.06,SW,225,7.0,18.0,83,0.00,,---,0.00,VWS V14.01,2013-01-04 10:05:00,
2013-01-04 05:10:00,27.8,23.3,30.06,SW,225,9.0,18.0,83,0.00,,---,0.00,VWS V14.01,2013-01-04 10:10:00,
2013-01-04 05:15:00,27.7,23.0,30.06,WSW,243,12.0,17.0,83,0.00,,,0.00,weatherlink.com 1.10,2013-01-04 10:15:00,
2013-01-04 05:20:00,27.7,22.9,30.06,SW,225,7.0,19.0,82,0.00,,---,0.00,VWS V14.01,2013-01-04 10:20:00,
2013-01-04 05:25:00,27.6,23.1,30.06,SW,225,5.0,14.0,83,0.00,,---,0.00,VWS V14.01,2013-01-04 10:25:00,
2013-01-04 05:30:00,27.5,23.0,30.06,WSW,245,8.0,14.0,82,0.00,,,0.00,weatherlink.com 1.10,2013-01-04 10:30:00,
2013-01-04 05:35:00,27.4,22.9,30.05,SW,225,7.0,14.0,83,0.00,,---,0.00,VWS V14.01,2013-01-04 10:35:00,
2013-01-04 05:40:00,27.3,22.8,30.05,SW,225,8.0,17.0,83,0.00,,---,0.00,VWS V14.01,2013-01-04 10:40:00,
2013-01-04 05:45:00,27.3,23.0,30.05,NW,326,7.0,16.0,82,0.00,,,0.00,weatherlink.com 1.10,2013-01-04 10:45:00,
2013-01-04 05:50:00,27.2,22.4,30.05,SW,225,9.0,16.0,82,0.00,,---,0.00,VWS V14.01,2013-01-04 10:50:00,
2013-01-04 05:55:00,27.1,22.6,30.05,SW,225,7.0,19.0,83,0.00,,---,0.00,VWS V14.01,2013-01-04 10:55:00,
2013-01-04 06:00:00,27.0,23.0,30.05,SW,225,8.0,18.0,83,0.00,,,0.00,weatherlink.com 1.10,2013-01-04 11:00:00,
2013-01-04 06:05:00,26.9,22.1,30.05,SW,225,8.0,15.0,82,0.00,,---,0.00,VWS V14.01,2013-01-04 11:05:00,
2013-01-04 06:10:00,26.9,22.4,30.05,SW,225,6.0,14.0,83,0.00,,---,0.00,VWS V14.01,2013-01-04 11:10:00,
2013-01-04 06:15:00,26.7,22.0,30.05,SW,229,19.0,19.0,83,0.00,,,0.00,weatherlink.com 1.10,2013-01-04 11:15:00,
2013-01-04 06:20:00,26.8,22.0,30.06,SW,225,7.0,17.0,82,0.00,,---,0.00,VWS V14.01,2013-01-04 11:20:00,
2013-01-04 06:25:00,26.7,22.2,30.06,SW,225,6.0,13.0,83,0.00,,---,0.00,VWS V14.01,2013-01-04 11:25:00,
2013-01-04 06:30:00,26.5,22.0,30.06,SW,224,6.0,16.0,83,0.00,,,0.00,weatherlink.com 1.10,2013-01-04 11:30:00,
2013-01-04 06:35:00,26.5,22.0,30.06,SW,225,7.0,14.0,83,0.00,,---,0.00,VWS V14.01,2013-01-04 11:35:00,
2013-01-04 06:40:00,26.3,21.9,30.05,SW,225,7.0,14.0,83,0.00,,---,0.00,VWS V14.01,2013-01-04 11:40:00,
2013-01-04 06:45:00,26.3,21.6,30.06,SW,225,8.0,17.0,82,0.00,,---,0.00,VWS V14.01,2013-01-04 11:45:00,
2013-01-04 06:46:00,26.3,22.0,30.05,WSW,245,9.0,15.0,82,0.00,,,0.00,weatherlink.com 1.10,2013-01-04 11:46:00,
2013-01-04 06:50:00,26.3,21.6,30.06,SW,225,6.0,15.0,82,0.00,,---,0.00,VWS V14.01,2013-01-04 11:50:00,
2013-01-04 06:55:00,26.2,21.5,30.05,SW,225,7.0,18.0,82,0.00,,---,0.00,VWS V14.01,2013-01-04 11:55:00,
2013-01-04 07:00:00,26.1,21.4,30.06,SW,225,6.0,16.0,82,0.00,,---,0.00,VWS V14.01,2013-01-04 12:00:00,
2013-01-04 07:01:00,26.1,21.0,30.06,SSW,209,7.0,17.0,82,0.00,,,0.00,weatherlink.com 1.10,2013-01-04 12:01:00,
2013-01-04 07:05:00,26.0,21.3,30.06,SW,225,6.0,13.0,82,0.00,,---,0.00,VWS V14.01,2013-01-04 12:05:00,
2013-01-04 07:10:00,26.0,21.3,30.05,SW,225,9.0,21.0,82,0.00,,---,0.00,VWS V14.01,2013-01-04 12:10:00,
2013-01-04 07:15:00,26.0,21.3,30.06,SW,225,7.0,17.0,82,0.00,,---,0.00,VWS V14.01,2013-01-04 12:15:00,
2013-01-04 07:16:00,26.0,21.0,30.06,SSW,212,17.0,21.0,82,0.00,,,0.00,weatherlink.com 1.10,2013-01-04 12:16:00,
2013-01-04 07:20:00,26.0,21.3,30.06,SW,225,7.0,16.0,82,0.00,,---,0.00,VWS V14.01,2013-01-04 12:20:00,
2013-01-04 07:25:00,25.9,21.2,30.05,SW,225,6.0,18.0,82,0.00,,---,0.00,VWS V14.01,2013-01-04 12:25:00,
2013-01-04 07:30:00,25.8,21.1,30.06,SW,225,6.0,17.0,82,0.00,,---,0.00,VWS V14.01,2013-01-04 12:30:00,
2013-01-04 07:31:00,25.8,21.0,30.05,SW,235,10.0,19.0,82,0.00,,,0.00,weatherlink.com 1.10,2013-01-04 12:31:00,
2013-01-04 07:35:00,25.9,21.2,30.06,SW,225,7.0,15.0,82,0.00,,---,0.00,VWS V14.01,2013-01-04 12:35:00,
2013-01-04 07:40:00,26.0,21.3,30.06,SW,225,6.0,14.0,82,0.00,,---,0.00,VWS V14.01,2013-01-04 12:40:00,
2013-01-04 07:45:00,26.7,22.5,30.06,SW,225,8.0,28.0,84,0.00,,---,0.00,VWS V14.01,2013-01-04 12:45:00,
2013-01-04 07:46:00,26.2,21.0,30.06,West,280,1.0,15.0,82,0.00,,,0.00,weatherlink.com 1.10,2013-01-04 12:46:00,
2013-01-04 07:50:00,26.7,22.5,30.07,SW,225,8.0,28.0,84,0.00,,---,0.00,VWS V14.01,2013-01-04 12:50:00,
2013-01-04 07:55:00,26.4,22.0,30.07,SW,225,5.0,14.0,83,0.00,,---,0.00,VWS V14.01,2013-01-04 12:55:00,
2013-01-04 08:00:00,26.5,22.0,30.06,SW,225,6.0,16.0,83,0.00,,---,0.00,VWS V14.01,2013-01-04 13:00:00,
2013-01-04 08:01:00,26.5,22.0,30.06,West,271,4.0,13.0,83,0.00,,,0.00,weatherlink.com 1.10,2013-01-04 13:01:00,
2013-01-04 08:05:00,26.6,22.1,30.06,SW,225,7.0,17.0,83,0.00,,---,0.00,VWS V14.01,2013-01-04 13:05:00,
2013-01-04 08:10:00,26.6,22.1,30.07,SW,225,7.0,17.0,83,0.00,,---,0.00,VWS V14.01,2013-01-04 13:10:00,
2013-01-04 08:15:00,26.7,22.5,30.06,SW,225,7.0,19.0,84,0.00,,---,0.00,VWS V14.01,2013-01-04 13:15:00,
2013-01-04 08:16:00,26.7,23.0,30.06,SW,229,7.0,19.0,84,0.00,,,0.00,weatherlink.com 1.10,2013-01-04 13:16:00,
2013-01-04 08:20:00,26.7,22.5,30.07,SW,225,6.0,18.0,84,0.00,,---,0.00,VWS V14.01,2013-01-04 13:20:00,
2013-01-04 08:25:00,26.7,22.8,30.06,SW,225,8.0,14.0,85,0.00,,---,0.00,VWS V14.01,2013-01-04 13:25:00,
2013-01-04 08:30:00,26.7,22.5,30.06,SW,225,7.0,18.0,84,0.00,,---,0.00,VWS V14.01,2013-01-04 13:30:00,
2013-01-04 08:31:00,26.7,23.0,30.06,WSW,256,7.0,18.0,84,0.00,,,0.00,weatherlink.com 1.10,2013-01-04 13:31:00,
2013-01-04 08:35:00,26.7,22.5,30.06,SW,225,9.0,24.0,84,0.00,,---,0.00,VWS V14.01,2013-01-04 13:35:00,
2013-01-04 08:40:00,26.7,22.5,30.06,SW,225,9.0,21.0,84,0.00,,---,0.00,VWS V14.01,2013-01-04 13:40:00,
2013-01-04 08:45:00,26.7,22.5,30.06,SW,225,8.0,28.0,84,0.00,,---,0.00,VWS V14.01,2013-01-04 13:45:00,
2013-01-04 08:46:00,26.7,23.0,30.06,West,278,10.0,20.0,84,0.00,,,0.00,weatherlink.com 1.10,2013-01-04 13:46:00,
2013-01-04 08:50:00,26.7,22.5,30.07,SW,225,8.0,28.0,84,0.00,,---,0.00,VWS V14.01,2013-01-04 13:50:00,
2013-01-04 08:55:00,26.7,22.5,30.06,SW,225,9.0,21.0,84,0.00,,---,0.00,VWS V14.01,2013-01-04 13:55:00,
2013-01-04 09:00:00,26.7,22.5,30.06,SW,225,7.0,15.0,84,0.00,,---,0.00,VWS V14.01,2013-01-04 14:00:00,
2013-01-04 09:01:00,26.7,23.0,30.06,SW,236,12.0,20.0,84,0.00,,,0.00,weatherlink.com 1.10,2013-01-04 14:01:00,
2013-01-04 09:05:00,26.7,22.5,30.06,SW,225,9.0,18.0,84,0.00,,---,0.00,VWS V14.01,2013-01-04 14:05:00,
2013-01-04 09:10:00,26.8,22.9,30.06,SW,225,9.0,17.0,85,0.00,,---,0.00,VWS V14.01,2013-01-04 14:10:00,
2013-01-04 09:15:00,26.8,22.9,30.06,SW,225,7.0,13.0,85,0.00,,---,0.00,VWS V14.01,2013-01-04 14:15:00,
2013-01-04 09:16:00,26.8,23.0,30.06,WSW,246,7.0,17.0,85,0.00,,,0.00,weatherlink.com 1.10,2013-01-04 14:16:00,
2013-01-04 09:20:00,26.8,22.9,30.06,SW,225,7.0,16.0,85,0.00,,---,0.00,VWS V14.01,2013-01-04 14:20:00,
2013-01-04 09:25:00,26.9,22.7,30.05,SW,225,7.0,20.0,84,0.00,,---,0.00,VWS V14.01,2013-01-04 14:25:00,
2013-01-04 09:30:00,27.0,22.8,30.05,SW,225,9.0,25.0,84,0.00,,---,0.00,VWS V14.01,2013-01-04 14:30:00,
2013-01-04 09:31:00,27.0,23.0,30.05,SW,230,12.0,20.0,84,0.00,,,0.00,weatherlink.com 1.10,2013-01-04 14:31:00,
2013-01-04 09:35:00,27.0,22.8,30.05,SW,225,10.0,25.0,84,0.00,,---,0.00,VWS V14.01,2013-01-04 14:35:00,
2013-01-04 09:40:00,27.0,22.8,30.05,SW,225,8.0,19.0,84,0.00,,---,0.00,VWS V14.01,2013-01-04 14:40:00,
2013-01-04 09:45:00,27.1,22.9,30.05,SW,225,10.0,19.0,84,0.00,,---,0.00,VWS V14.01,2013-01-04 14:45:00,
2013-01-04 09:46:00,27.1,23.0,30.05,SSW,202,13.0,19.0,84,0.00,,,0.00,weatherlink.com 1.10,2013-01-04 14:46:00,
2013-01-04 09:50:00,27.1,22.9,30.05,SW,225,7.0,19.0,84,0.00,,---,0.00,VWS V14.01,2013-01-04 14:50:00,
2013-01-04 09:55:00,27.3,23.1,30.05,SW,225,9.0,21.0,84,0.00,,---,0.00,VWS V14.01,2013-01-04 14:55:00,
2013-01-04 10:00:00,27.4,23.2,30.05,SW,225,7.0,16.0,84,0.00,,---,0.00,VWS V14.01,2013-01-04 15:00:00,
2013-01-04 10:01:00,27.4,23.0,30.05,SSE,163,9.0,21.0,84,0.00,,,0.00,weatherlink.com 1.10,2013-01-04 15:01:00,
2013-01-04 10:05:00,27.5,23.0,30.05,SW,225,9.0,21.0,83,0.00,,---,0.00,VWS V14.01,2013-01-04 15:05:00,
2013-01-04 10:10:00,27.5,23.3,30.06,SW,225,8.0,15.0,84,0.00,,---,0.00,VWS V14.01,2013-01-04 15:10:00,
2013-01-04 10:15:00,27.7,23.2,30.06,SW,225,7.0,18.0,83,0.00,,---,0.00,VWS V14.01,2013-01-04 15:15:00,
2013-01-04 10:16:00,27.8,23.0,30.06,SW,236,8.0,17.0,83,0.00,,,0.00,weatherlink.com 1.10,2013-01-04 15:16:00,
2013-01-04 10:20:00,27.8,23.3,30.06,SW,225,9.0,18.0,83,0.00,,---,0.00,VWS V14.01,2013-01-04 15:20:00,
2013-01-04 10:25:00,27.9,23.4,30.06,SW,225,9.0,19.0,83,0.00,,---,0.00,VWS V14.01,2013-01-04 15:25:00,
2013-01-04 10:30:00,28.1,23.6,30.06,SW,225,7.0,19.0,83,0.00,,---,0.00,VWS V14.01,2013-01-04 15:30:00,
2013-01-04 10:31:00,28.1,24.0,30.06,South,188,4.0,18.0,83,0.00,,,0.00,weatherlink.com 1.10,2013-01-04 15:31:00,
2013-01-04 10:35:00,28.3,23.5,30.06,SW,225,9.0,21.0,82,0.00,,---,0.00,VWS V14.01,2013-01-04 15:35:00,
2013-01-04 10:40:00,28.3,23.5,30.06,SW,225,8.0,19.0,82,0.00,,---,0.00,VWS V14.01,2013-01-04 15:40:00,
2013-01-04 10:45:00,28.5,23.7,30.06,SW,225,9.0,16.0,82,0.00,,---,0.00,VWS V14.01,2013-01-04 15:45:00,
2013-01-04 10:46:00,28.5,24.0,30.05,WSW,238,5.0,18.0,82,0.00,,,0.00,weatherlink.com 1.10,2013-01-04 15:46:00,
2013-01-04 10:50:00,28.5,23.7,30.05,SW,225,10.0,22.0,82,0.00,,---,0.00,VWS V14.01,2013-01-04 15:50:00,
2013-01-04 10:55:00,28.7,23.9,30.05,SW,225,7.0,22.0,82,0.00,,---,0.00,VWS V14.01,2013-01-04 15:55:00,
2013-01-04 11:00:00,28.9,23.8,30.05,SW,225,12.0,23.0,81,0.00,,---,0.00,VWS V14.01,2013-01-04 16:00:00,
2013-01-04 11:01:00,29.0,24.0,30.05,SW,222,8.0,24.0,81,0.00,,,0.00,weatherlink.com 1.10,2013-01-04 16:01:00,
2013-01-04 11:05:00,29.1,24.0,30.04,SW,225,11.0,22.0,81,0.00,,---,0.00,VWS V14.01,2013-01-04 16:05:00,
2013-01-04 11:10:00,29.2,24.1,30.04,SW,225,11.0,23.0,81,0.00,,---,0.00,VWS V14.01,2013-01-04 16:10:00,
2013-01-04 11:15:00,29.6,24.2,30.05,SW,225,9.0,21.0,80,0.00,,---,0.00,VWS V14.01,2013-01-04 16:15:00,
2013-01-04 11:16:00,29.8,24.0,30.05,SSW,211,19.0,20.0,80,0.00,,,0.00,weatherlink.com 1.10,2013-01-04 16:16:00,
2013-01-04 11:20:00,30.0,24.6,30.05,SW,225,7.0,15.0,80,0.00,,---,0.00,VWS V14.01,2013-01-04 16:20:00,
2013-01-04 11:25:00,30.1,24.7,30.05,SW,225,8.0,19.0,80,0.00,,---,0.00,VWS V14.01,2013-01-04 16:25:00,
2013-01-04 11:30:00,30.1,24.7,30.04,SW,225,8.0,22.0,80,0.00,,---,0.00,VWS V14.01,2013-01-04 16:30:00,
2013-01-04 11:31:00,30.1,25.0,30.04,SW,225,6.0,21.0,80,0.00,,,0.00,weatherlink.com 1.10,2013-01-04 16:31:00,
2013-01-04 11:35:00,30.2,24.8,30.04,SW,225,6.0,18.0,80,0.00,,---,0.00,VWS V14.01,2013-01-04 16:35:00,
2013-01-04 11:40:00,30.4,25.0,30.03,SW,225,8.0,20.0,80,0.00,,---,0.00,VWS V14.01,2013-01-04 16:40:00,
2013-01-04 11:45:00,30.8,25.1,30.03,SW,225,7.0,19.0,79,0.00,,---,0.00,VWS V14.01,2013-01-04 16:45:00,
2013-01-04 11:46:00,30.9,25.0,30.03,SSW,200,3.0,19.0,79,0.00,,,0.00,weatherlink.com 1.10,2013-01-04 16:46:00,
2013-01-04 11:50:00,30.8,25.4,30.03,SW,225,8.0,17.0,80,0.00,,---,0.00,VWS V14.01,2013-01-04 16:50:00,
2013-01-04 11:55:00,30.5,25.1,30.03,SW,225,10.0,18.0,80,0.00,,---,0.00,VWS V14.01,2013-01-04 16:55:00,
2013-01-04 12:00:00,30.6,25.2,30.03,SW,225,9.0,18.0,80,0.00,,---,0.00,VWS V14.01,2013-01-04 17:00:00,
2013-01-04 12:01:00,30.7,25.0,30.03,WSW,250,4.0,18.0,80,0.00,,,0.00,weatherlink.com 1.10,2013-01-04 17:01:00,
2013-01-04 12:05:00,30.8,25.1,30.03,SW,225,10.0,22.0,79,0.00,,---,0.00,VWS V14.01,2013-01-04 17:05:00,
2013-01-04 12:10:00,30.8,25.1,30.02,SW,225,10.0,24.0,79,0.00,,---,0.00,VWS V14.01,2013-01-04 17:10:00,
2013-01-04 12:15:00,31.1,25.4,30.02,SW,225,10.0,22.0,79,0.00,,---,0.00,VWS V14.01,2013-01-04 17:15:00,
2013-01-04 12:16:00,31.2,25.0,30.02,SW,224,11.0,23.0,79,0.00,,,0.00,weatherlink.com 1.10,2013-01-04 17:16:00,
2013-01-04 12:20:00,31.5,25.8,30.02,SW,225,8.0,23.0,79,0.00,,---,0.00,VWS V14.01,2013-01-04 17:20:00,
2013-01-04 12:25:00,31.8,25.7,30.02,SW,225,8.0,16.0,78,0.00,,---,0.00,VWS V14.01,2013-01-04 17:25:00,
2013-01-04 12:30:00,32.2,25.8,30.02,SW,225,6.0,20.0,77,0.00,,---,0.00,VWS V14.01,2013-01-04 17:30:00,
2013-01-04 12:31:00,32.4,26.0,30.02,SW,229,20.0,20.0,78,0.00,,,0.00,weatherlink.com 1.10,2013-01-04 17:31:00,
2013-01-04 12:35:00,32.3,25.9,30.02,SW,225,9.0,23.0,77,0.00,,---,0.00,VWS V14.01,2013-01-04 17:35:00,
2013-01-04 12:40:00,32.0,25.9,30.02,SW,225,10.0,17.0,78,0.00,,---,0.00,VWS V14.01,2013-01-04 17:40:00,
2013-01-04 12:45:00,31.7,25.6,30.02,SW,225,11.0,25.0,78,0.00,,---,0.00,VWS V14.01,2013-01-04 17:45:00,
2013-01-04 12:46:00,31.6,25.0,30.02,SW,225,13.0,25.0,78,0.00,,,0.00,weatherlink.com 1.10,2013-01-04 17:46:00,
2013-01-04 12:50:00,31.7,25.6,30.01,SW,225,8.0,15.0,78,0.00,,---,0.00,VWS V14.01,2013-01-04 17:50:00,
2013-01-04 12:55:00,32.1,26.0,30.01,SW,225,7.0,17.0,78,0.00,,---,0.00,VWS V14.01,2013-01-04 17:55:00,
2013-01-04 13:00:00,32.0,25.9,30.02,SW,225,14.0,33.0,78,0.00,,---,0.00,VWS V14.01,2013-01-04 18:00:00,
2013-01-04 13:01:00,31.8,26.0,30.02,WSW,252,8.0,33.0,78,0.00,,,0.00,weatherlink.com 1.10,2013-01-04 18:01:00,
2013-01-04 13:05:00,31.7,25.9,30.01,SW,225,10.0,22.0,79,0.00,,---,0.00,VWS V14.01,2013-01-04 18:05:00,
2013-01-04 13:10:00,31.8,26.0,30.01,SW,225,11.0,25.0,79,0.00,,---,0.00,VWS V14.01,2013-01-04 18:10:00,
2013-01-04 13:15:00,31.8,26.0,30.01,SW,225,10.0,22.0,79,0.00,,---,0.00,VWS V14.01,2013-01-04 18:15:00,
2013-01-04 13:16:00,31.9,26.0,30.01,SW,231,7.0,25.0,79,0.00,,,0.00,weatherlink.com 1.10,2013-01-04 18:16:00,
2013-01-04 13:20:00,32.1,26.3,30.01,SW,225,7.0,16.0,79,0.00,,---,0.00,VWS V14.01,2013-01-04 18:20:00,
2013-01-04 13:25:00,32.2,26.1,30.01,SW,225,10.0,21.0,78,0.00,,---,0.00,VWS V14.01,2013-01-04 18:25:00,
2013-01-04 13:30:00,32.1,26.3,30.00,SW,225,7.0,16.0,79,0.00,,---,0.00,VWS V14.01,2013-01-04 18:30:00,
2013-01-04 13:31:00,32.2,26.0,30.00,SSW,197,9.0,21.0,79,0.00,,,0.00,weatherlink.com 1.10,2013-01-04 18:31:00,
2013-01-04 13:35:00,32.3,26.5,30.00,SW,225,7.0,15.0,79,0.00,,---,0.00,VWS V14.01,2013-01-04 18:35:00,
2013-01-04 13:40:00,32.2,26.1,30.00,SW,225,10.0,21.0,78,0.00,,---,0.00,VWS V14.01,2013-01-04 18:40:00,
2013-01-04 13:45:00,32.1,26.3,30.00,SW,225,9.0,18.0,79,0.00,,---,0.00,VWS V14.01,2013-01-04 18:45:00,
2013-01-04 13:46:00,32.1,26.0,30.00,SW,228,7.0,20.0,79,0.00,,,0.00,weatherlink.com 1.10,2013-01-04 18:46:00,
2013-01-04 13:50:00,32.1,26.3,30.00,SW,225,8.0,17.0,79,0.00,,---,0.00,VWS V14.01,2013-01-04 18:50:00,
2013-01-04 13:55:00,32.1,26.3,30.00,SW,225,7.0,16.0,79,0.00,,---,0.00,VWS V14.01,2013-01-04 18:55:00,
2013-01-04 14:00:00,32.2,26.1,30.00,SW,225,10.0,19.0,78,0.00,,---,0.00,VWS V14.01,2013-01-04 19:00:00,
2013-01-04 14:01:00,32.2,26.0,30.00,SSW,211,11.0,18.0,78,0.00,,,0.00,weatherlink.com 1.10,2013-01-04 19:01:00,
2013-01-04 14:05:00,32.2,26.1,30.00,SW,225,7.0,19.0,78,0.00,,---,0.00,VWS V14.01,2013-01-04 19:05:00,
2013-01-04 14:10:00,32.4,26.3,30.00,SW,225,8.0,22.0,78,0.00,,---,0.00,VWS V14.01,2013-01-04 19:10:00,
2013-01-04 14:15:00,32.5,26.1,30.00,SW,225,9.0,19.0,77,0.00,,---,0.00,VWS V14.01,2013-01-04 19:15:00,
2013-01-04 14:16:00,32.5,26.0,30.00,SW,225,10.0,21.0,77,0.00,,,0.00,weatherlink.com 1.10,2013-01-04 19:16:00,
2013-01-04 14:20:00,32.5,26.1,30.00,SW,225,11.0,22.0,77,0.00,,---,0.00,VWS V14.01,2013-01-04 19:20:00,
2013-01-04 14:25:00,32.6,26.2,30.00,SW,225,8.0,18.0,77,0.00,,---,0.00,VWS V14.01,2013-01-04 19:25:00,
2013-01-04 14:30:00,32.9,26.5,30.00,SW,225,5.0,17.0,77,0.00,,---,0.00,VWS V14.01,2013-01-04 19:30:00,
2013-01-04 14:31:00,33.1,27.0,30.00,WSW,239,3.0,18.0,77,0.00,,,0.00,weatherlink.com 1.10,2013-01-04 19:31:00,
2013-01-04 14:35:00,33.0,26.3,30.00,SW,225,7.0,18.0,76,0.00,,---,0.00,VWS V14.01,2013-01-04 19:35:00,
2013-01-04 14:40:00,32.8,26.1,30.00,SW,225,8.0,19.0,76,0.00,,---,0.00,VWS V14.01,2013-01-04 19:40:00,
2013-01-04 14:45:00,32.8,26.1,30.00,SW,225,9.0,20.0,76,0.00,,---,0.00,VWS V14.01,2013-01-04 19:45:00,
2013-01-04 14:46:00,32.9,26.0,30.00,SW,225,4.0,20.0,76,0.00,,,0.00,weatherlink.com 1.10,2013-01-04 19:46:00,
2013-01-04 14:50:00,33.0,26.3,30.01,SW,225,6.0,14.0,76,0.00,,---,0.00,VWS V14.01,2013-01-04 19:50:00,
2013-01-04 14:55:00,32.8,26.1,30.01,SW,225,8.0,17.0,76,0.00,,---,0.00,VWS V14.01,2013-01-04 19:55:00,
2013-01-04 15:00:00,32.8,25.8,30.01,SW,225,9.0,17.0,75,0.00,,---,0.00,VWS V14.01,2013-01-04 20:00:00,
2013-01-04 15:02:00,32.9,26.0,30.01,SW,233,8.0,17.0,76,0.00,,,0.00,weatherlink.com 1.10,2013-01-04 20:02:00,
2013-01-04 15:05:00,32.9,26.2,30.01,WSW,248,7.0,15.0,76,0.00,,---,0.00,VWS V14.01,2013-01-04 20:05:00,
2013-01-04 15:10:00,32.7,26.0,30.01,SW,225,8.0,17.0,76,0.00,,---,0.00,VWS V14.01,2013-01-04 20:10:00,
2013-01-04 15:15:00,32.7,26.0,30.02,SW,225,7.0,16.0,76,0.00,,---,0.00,VWS V14.01,2013-01-04 20:15:00,
2013-01-04 15:20:00,32.7,26.0,30.02,SW,225,8.0,19.0,76,0.00,,---,0.00,VWS V14.01,2013-01-04 20:20:00,
2013-01-04 15:25:00,32.7,26.0,30.02,SW,225,6.0,16.0,76,0.00,,---,0.00,VWS V14.01,2013-01-04 20:25:00,
2013-01-04 15:30:00,32.5,26.1,30.02,SW,225,7.0,14.0,77,0.00,,---,0.00,VWS V14.01,2013-01-04 20:30:00,
2013-01-04 15:31:00,32.3,26.0,30.02,West,276,6.0,16.0,77,0.00,,,0.00,weatherlink.com 1.10,2013-01-04 20:31:00,
2013-01-04 15:35:00,32.1,25.7,30.02,SW,225,6.0,14.0,77,0.00,,---,0.00,VWS V14.01,2013-01-04 20:35:00,
2013-01-04 15:40:00,32.2,25.5,30.02,SW,225,6.0,15.0,76,0.00,,---,0.00,VWS V14.01,2013-01-04 20:40:00,
2013-01-04 15:45:00,32.5,25.5,30.02,SW,225,6.0,15.0,75,0.00,,---,0.00,VWS V14.01,2013-01-04 20:45:00,
2013-01-04 15:47:00,32.7,26.0,30.02,SW,229,7.0,16.0,75,0.00,,,0.00,weatherlink.com 1.10,2013-01-04 20:47:00,
2013-01-04 15:50:00,32.7,25.7,30.03,SW,225,5.0,12.0,75,0.00,,---,0.00,VWS V14.01,2013-01-04 20:50:00,
2013-01-04 15:55:00,32.7,25.7,30.03,WSW,248,5.0,10.0,75,0.00,,---,0.00,VWS V14.01,2013-01-04 20:55:00,
2013-01-04 16:00:00,32.4,25.7,30.03,SW,225,5.0,12.0,76,0.00,,---,0.00,VWS V14.01,2013-01-04 21:00:00,
2013-01-04 16:02:00,32.4,26.0,30.03,WSW,248,5.0,11.0,76,0.00,,,0.00,weatherlink.com 1.10,2013-01-04 21:02:00,
2013-01-04 16:05:00,32.3,25.6,30.03,SW,225,5.0,10.0,76,0.00,,---,0.00,VWS V14.01,2013-01-04 21:05:00,
2013-01-04 16:10:00,32.3,25.6,30.03,SW,225,5.0,11.0,76,0.00,,---,0.00,VWS V14.01,2013-01-04 21:10:00,
2013-01-04 16:15:00,32.4,25.7,30.04,SW,225,4.0,10.0,76,0.00,,---,0.00,VWS V14.01,2013-01-04 21:15:00,
2013-01-04 16:17:00,32.4,26.0,30.04,SW,233,1.0,11.0,76,0.00,,,0.00,weatherlink.com 1.10,2013-01-04 21:17:00,
2013-01-04 16:20:00,32.4,26.0,30.04,WSW,248,3.0,9.0,77,0.00,,---,0.00,VWS V14.01,2013-01-04 21:20:00,
2013-01-04 16:25:00,32.3,25.6,30.04,SW,225,6.0,17.0,76,0.00,,---,0.00,VWS V14.01,2013-01-04 21:25:00,
2013-01-04 16:30:00,32.1,25.7,30.05,SW,225,6.0,12.0,77,0.00,,---,0.00,VWS V14.01,2013-01-04 21:30:00,
2013-01-04 16:32:00,32.0,26.0,30.05,West,261,3.0,16.0,77,0.00,,,0.00,weatherlink.com 1.10,2013-01-04 21:32:00,
2013-01-04 16:35:00,31.9,25.5,30.05,WSW,248,6.0,15.0,77,0.00,,---,0.00,VWS V14.01,2013-01-04 21:35:00,
2013-01-04 16:40:00,31.7,25.6,30.05,SW,225,5.0,14.0,78,0.00,,---,0.00,VWS V14.01,2013-01-04 21:40:00,
2013-01-04 16:45:00,31.5,25.4,30.05,SW,225,6.0,14.0,78,0.00,,---,0.00,VWS V14.01,2013-01-04 21:45:00,
2013-01-04 16:47:00,31.4,25.0,30.05,WNW,285,11.0,15.0,78,0.00,,,0.00,weatherlink.com 1.10,2013-01-04 21:47:00,
2013-01-04 16:50:00,31.4,25.4,30.05,SW,225,7.0,16.0,78,0.00,,---,0.00,VWS V14.01,2013-01-04 21:50:00,
2013-01-04 16:55:00,31.3,25.2,30.05,SW,225,6.0,13.0,78,0.00,,---,0.00,VWS V14.01,2013-01-04 21:55:00,
2013-01-04 17:00:00,31.2,25.1,30.05,SW,225,5.0,11.0,78,0.00,,---,0.00,VWS V14.01,2013-01-04 22:00:00,
2013-01-04 17:02:00,31.1,25.0,30.05,SW,222,4.0,13.0,78,0.00,,,0.00,weatherlink.com 1.10,2013-01-04 22:02:00,
2013-01-04 17:05:00,31.1,25.0,30.06,SW,225,5.0,12.0,78,0.00,,---,0.00,VWS V14.01,2013-01-04 22:05:00,
2013-01-04 17:10:00,31.0,25.0,30.06,SW,225,5.0,15.0,78,0.00,,---,0.00,VWS V14.01,2013-01-04 22:10:00,
2013-01-04 17:15:00,30.8,24.8,30.06,SW,225,4.0,10.0,78,0.00,,---,0.00,VWS V14.01,2013-01-04 22:15:00,
2013-01-04 17:17:00,30.8,25.0,30.06,SW,235,1.0,14.0,78,0.00,,,0.00,weatherlink.com 1.10,2013-01-04 22:17:00,
2013-01-04 17:20:00,30.7,24.7,30.06,SW,225,3.0,7.0,78,0.00,,---,0.00,VWS V14.01,2013-01-04 22:20:00,
2013-01-04 17:25:00,30.6,24.9,30.06,SW,225,2.0,5.0,79,0.00,,---,0.00,VWS V14.01,2013-01-04 22:25:00,
2013-01-04 17:30:00,30.4,24.7,30.07,SW,225,3.0,9.0,79,0.00,,---,0.00,VWS V14.01,2013-01-04 22:30:00,
2013-01-04 17:32:00,30.3,25.0,30.07,SW,224,3.0,8.0,79,0.00,,,0.00,weatherlink.com 1.10,2013-01-04 22:32:00,
2013-01-04 17:35:00,30.2,24.8,30.07,SW,225,4.0,11.0,80,0.00,,---,0.00,VWS V14.01,2013-01-04 22:35:00,
2013-01-04 17:40:00,30.1,24.7,30.07,SW,225,3.0,8.0,80,0.00,,---,0.00,VWS V14.01,2013-01-04 22:40:00,
2013-01-04 17:45:00,30.0,24.6,30.06,SW,225,3.0,11.0,80,0.00,,---,0.00,VWS V14.01,2013-01-04 22:45:00,
2013-01-04 17:47:00,30.0,25.0,30.06,WSW,253,2.0,11.0,80,0.00,,,0.00,weatherlink.com 1.10,2013-01-04 22:47:00,
2013-01-04 17:50:00,30.0,24.6,30.06,SW,225,5.0,13.0,80,0.00,,---,0.00,VWS V14.01,2013-01-04 22:50:00,
2013-01-04 17:55:00,30.1,24.7,30.07,SW,225,4.0,9.0,80,0.00,,---,0.00,VWS V14.01,2013-01-04 22:55:00,
2013-01-04 18:00:00,30.0,24.6,30.07,SW,225,5.0,12.0,80,0.00,,---,0.00,VWS V14.01,2013-01-04 23:00:00,
2013-01-04 18:02:00,30.0,25.0,30.07,WNW,290,3.0,11.0,80,0.00,,,0.00,weatherlink.com 1.10,2013-01-04 23:02:00,
2013-01-04 18:05:00,30.0,24.6,30.07,SW,225,2.0,5.0,80,0.00,,---,0.00,VWS V14.01,2013-01-04 23:05:00,
2013-01-04 18:10:00,29.8,24.4,30.07,SW,225,3.0,8.0,80,0.00,,---,0.00,VWS V14.01,2013-01-04 23:10:00,
2013-01-04 18:15:00,29.7,24.3,30.07,SW,225,4.0,11.0,80,0.00,,---,0.00,VWS V14.01,2013-01-04 23:15:00,
2013-01-04 18:17:00,29.7,24.0,30.07,West,266,1.0,10.0,80,0.00,,,0.00,weatherlink.com 1.10,2013-01-04 23:17:00,
2013-01-04 18:20:00,29.7,24.3,30.08,SW,225,3.0,9.0,80,0.00,,---,0.00,VWS V14.01,2013-01-04 23:20:00,
2013-01-04 18:25:00,29.7,24.3,30.08,SW,225,3.0,10.0,80,0.00,,---,0.00,VWS V14.01,2013-01-04 23:25:00,
2013-01-04 18:30:00,29.7,24.3,30.08,SW,225,4.0,12.0,80,0.00,,---,0.00,VWS V14.01,2013-01-04 23:30:00,
2013-01-04 18:32:00,29.7,24.0,30.08,SW,225,2.0,11.0,80,0.00,,,0.00,weatherlink.com 1.10,2013-01-04 23:32:00,
2013-01-04 18:35:00,29.7,24.3,30.08,SW,225,4.0,10.0,80,0.00,,---,0.00,VWS V14.01,2013-01-04 23:35:00,
2013-01-04 18:40:00,29.7,24.3,30.08,SW,225,6.0,14.0,80,0.00,,---,0.00,VWS V14.01,2013-01-04 23:40:00,
2013-01-04 18:45:00,29.8,24.4,30.08,SW,225,4.0,9.0,80,0.00,,---,0.00,VWS V14.01,2013-01-04 23:45:00,
2013-01-04 18:47:00,29.8,24.0,30.08,SW,228,6.0,13.0,80,0.00,,,0.00,weatherlink.com 1.10,2013-01-04 23:47:00,
2013-01-04 18:50:00,29.8,24.4,30.08,SW,225,5.0,11.0,80,0.00,,---,0.00,VWS V14.01,2013-01-04 23:50:00,
2013-01-04 18:55:00,29.8,24.4,30.09,SW,225,5.0,11.0,80,0.00,,---,0.00,VWS V14.01,2013-01-04 23:55:00,
2013-01-04 19:00:00,29.7,24.6,30.09,SW,225,3.0,10.0,81,0.00,,---,0.00,VWS V14.01,2013-01-05 00:00:00,
2013-01-04 19:02:00,29.7,25.0,30.09,WSW,238,1.0,10.0,81,0.00,,,0.00,weatherlink.com 1.10,2013-01-05 00:02:00,
2013-01-04 19:05:00,29.7,24.6,30.09,SW,225,3.0,8.0,81,0.00,,---,0.00,VWS V14.01,2013-01-05 00:05:00,
2013-01-04 19:10:00,29.7,24.6,30.09,SW,225,4.0,12.0,81,0.00,,---,0.00,VWS V14.01,2013-01-05 00:10:00,
2013-01-04 19:15:00,29.7,24.6,30.09,SW,225,5.0,13.0,81,0.00,,---,0.00,VWS V14.01,2013-01-05 00:15:00,
2013-01-04 19:17:00,29.7,25.0,30.09,SW,224,3.0,14.0,81,0.00,,,0.00,weatherlink.com 1.10,2013-01-05 00:17:00,
2013-01-04 19:20:00,29.7,24.6,30.09,SW,225,4.0,10.0,81,0.00,,---,0.00,VWS V14.01,2013-01-05 00:20:00,
2013-01-04 19:25:00,29.8,24.7,30.09,WSW,248,4.0,13.0,81,0.00,,---,0.00,VWS V14.01,2013-01-05 00:25:00,
2013-01-04 19:30:00,29.7,24.6,30.10,SW,225,3.0,9.0,81,0.00,,---,0.00,VWS V14.01,2013-01-05 00:30:00,
2013-01-04 19:32:00,29.7,25.0,30.10,WNW,294,1.0,13.0,81,0.00,,,0.00,weatherlink.com 1.10,2013-01-05 00:32:00,
2013-01-04 19:35:00,29.7,24.6,30.10,SW,225,3.0,7.0,81,0.00,,---,0.00,VWS V14.01,2013-01-05 00:35:00,
2013-01-04 19:40:00,29.6,24.5,30.10,SW,225,5.0,12.0,81,0.00,,---,0.00,VWS V14.01,2013-01-05 00:40:00,
2013-01-04 19:45:00,29.7,24.6,30.10,SW,225,3.0,10.0,81,0.00,,---,0.00,VWS V14.01,2013-01-05 00:45:00,
2013-01-04 19:47:00,29.7,25.0,30.10,SW,222,6.0,12.0,81,0.00,,,0.00,weatherlink.com 1.10,2013-01-05 00:47:00,
2013-01-04 19:50:00,29.7,24.6,30.11,SW,225,5.0,10.0,81,0.00,,---,0.00,VWS V14.01,2013-01-05 00:50:00,
2013-01-04 19:55:00,29.7,24.6,30.11,SW,225,3.0,9.0,81,0.00,,---,0.00,VWS V14.01,2013-01-05 00:55:00,
2013-01-04 20:00:00,29.6,24.5,30.10,SW,225,3.0,7.0,81,0.00,,---,0.00,VWS V14.01,2013-01-05 01:00:00,
2013-01-04 20:02:00,29.6,24.0,30.11,SW,234,3.0,9.0,81,0.00,,,0.00,weatherlink.com 1.10,2013-01-05 01:02:00,
2013-01-04 20:05:00,29.5,24.7,30.11,SW,225,4.0,8.0,82,0.00,,---,0.00,VWS V14.01,2013-01-05 01:05:00,
2013-01-04 20:10:00,29.6,24.8,30.11,SW,225,5.0,10.0,82,0.00,,---,0.00,VWS V14.01,2013-01-05 01:10:00,
2013-01-04 20:15:00,29.6,24.8,30.11,SW,225,2.0,5.0,82,0.00,,---,0.00,VWS V14.01,2013-01-05 01:15:00,
2013-01-04 20:17:00,29.6,25.0,30.11,SW,236,1.0,9.0,82,0.00,,,0.00,weatherlink.com 1.10,2013-01-05 01:17:00,
2013-01-04 20:20:00,29.5,24.7,30.12,SW,225,3.0,7.0,82,0.00,,---,0.00,VWS V14.01,2013-01-05 01:20:00,
2013-01-04 20:25:00,29.4,24.6,30.12,SW,225,3.0,7.0,82,0.00,,---,0.00,VWS V14.01,2013-01-05 01:25:00,
2013-01-04 20:30:00,29.4,24.6,30.12,WSW,248,3.0,6.0,82,0.00,,---,0.00,VWS V14.01,2013-01-05 01:30:00,
2013-01-04 20:32:00,29.4,25.0,30.12,WSW,256,2.0,6.0,82,0.00,,,0.00,weatherlink.com 1.10,2013-01-05 01:32:00,
2013-01-04 20:35:00,29.4,24.6,30.12,WSW,248,2.0,5.0,82,0.00,,---,0.00,VWS V14.01,2013-01-05 01:35:00,
2013-01-04 20:40:00,29.2,24.7,30.12,WSW,248,1.0,5.0,83,0.00,,---,0.00,VWS V14.01,2013-01-05 01:40:00,
2013-01-04 20:45:00,29.0,24.5,30.12,SW,225,2.0,8.0,83,0.00,,---,0.00,VWS V14.01,2013-01-05 01:45:00,
2013-01-04 20:47:00,29.0,25.0,30.13,WSW,243,2.0,7.0,83,0.00,,,0.00,weatherlink.com 1.10,2013-01-05 01:47:00,
2013-01-04 20:50:00,29.0,24.5,30.12,SW,225,2.0,5.0,83,0.00,,---,0.00,VWS V14.01,2013-01-05 01:50:00,
2013-01-04 20:55:00,28.9,24.4,30.12,SW,225,2.0,7.0,83,0.00,,---,0.00,VWS V14.01,2013-01-05 01:55:00,
2013-01-04 21:00:00,28.9,24.7,30.12,SW,225,2.0,6.0,84,0.00,,---,0.00,VWS V14.01,2013-01-05 02:00:00,
2013-01-04 21:02:00,28.8,25.0,30.12,WSW,248,3.0,7.0,84,0.00,,,0.00,weatherlink.com 1.10,2013-01-05 02:02:00,
2013-01-04 21:05:00,28.8,24.6,30.12,SW,225,2.0,6.0,84,0.00,,---,0.00,VWS V14.01,2013-01-05 02:05:00,
2013-01-04 21:10:00,28.8,24.6,30.12,SW,225,1.0,4.0,84,0.00,,---,0.00,VWS V14.01,2013-01-05 02:10:00,
2013-01-04 21:15:00,28.8,24.6,30.13,SW,225,2.0,5.0,84,0.00,,---,0.00,VWS V14.01,2013-01-05 02:15:00,
2013-01-04 21:17:00,28.7,25.0,30.13,SW,221,3.0,5.0,84,0.00,,,0.00,weatherlink.com 1.10,2013-01-05 02:17:00,
2013-01-04 21:20:00,28.7,24.8,30.12,SW,225,1.0,4.0,85,0.00,,---,0.00,VWS V14.01,2013-01-05 02:20:00,
2013-01-04 21:25:00,28.6,24.7,30.13,SW,225,2.0,6.0,85,0.00,,---,0.00,VWS V14.01,2013-01-05 02:25:00,
2013-01-04 21:30:00,28.6,24.7,30.13,SW,225,1.0,4.0,85,0.00,,---,0.00,VWS V14.01,2013-01-05 02:30:00,
2013-01-04 21:32:00,28.6,25.0,30.13,SSW,197,4.0,5.0,85,0.00,,,0.00,weatherlink.com 1.10,2013-01-05 02:32:00,
2013-01-04 21:35:00,28.6,24.7,30.13,SW,225,2.0,6.0,85,0.00,,---,0.00,VWS V14.01,2013-01-05 02:35:00,
2013-01-04 21:40:00,28.6,24.7,30.13,WSW,248,1.0,4.0,85,0.00,,---,0.00,VWS V14.01,2013-01-05 02:40:00,
2013-01-04 21:45:00,28.6,25.0,30.13,SW,225,2.0,5.0,86,0.00,,---,0.00,VWS V14.01,2013-01-05 02:45:00,
2013-01-04 21:47:00,28.6,25.0,30.13,SW,221,1.0,4.0,86,0.00,,,0.00,weatherlink.com 1.10,2013-01-05 02:47:00,
2013-01-04 21:50:00,28.5,24.9,30.13,SW,225,2.0,5.0,86,0.00,,---,0.00,VWS V14.01,2013-01-05 02:50:00,
2013-01-04 21:55:00,28.5,24.9,30.13,SW,225,2.0,5.0,86,0.00,,---,0.00,VWS V14.01,2013-01-05 02:55:00,
2013-01-04 22:00:00,28.5,24.9,30.13,SW,225,2.0,7.0,86,0.00,,---,0.00,VWS V14.01,2013-01-05 03:00:00,
2013-01-04 22:02:00,28.5,25.0,30.14,West,260,0.0,6.0,86,0.00,,,0.00,weatherlink.com 1.10,2013-01-05 03:02:00,
2013-01-04 22:05:00,28.4,24.8,30.14,SW,225,2.0,5.0,86,0.00,,---,0.00,VWS V14.01,2013-01-05 03:05:00,
2013-01-04 22:10:00,28.3,24.7,30.14,SW,225,2.0,8.0,86,0.00,,---,0.00,VWS V14.01,2013-01-05 03:10:00,
2013-01-04 22:15:00,28.2,24.6,30.14,SW,225,1.0,3.0,86,0.00,,---,0.00,VWS V14.01,2013-01-05 03:15:00,
2013-01-04 22:17:00,28.1,25.0,30.14,SW,215,3.0,8.0,86,0.00,,,0.00,weatherlink.com 1.10,2013-01-05 03:17:00,
2013-01-04 22:20:00,28.1,24.7,30.14,SW,225,2.0,5.0,87,0.00,,---,0.00,VWS V14.01,2013-01-05 03:20:00,
2013-01-04 22:25:00,28.2,24.8,30.14,SW,225,3.0,10.0,87,0.00,,---,0.00,VWS V14.01,2013-01-05 03:25:00,
2013-01-04 22:30:00,28.4,24.8,30.14,SW,225,2.0,4.0,86,0.00,,---,0.00,VWS V14.01,2013-01-05 03:30:00,
2013-01-04 22:32:00,28.4,25.0,30.14,SW,218,0.0,9.0,86,0.00,,,0.00,weatherlink.com 1.10,2013-01-05 03:32:00,
2013-01-04 22:35:00,28.4,25.0,30.15,SW,225,3.0,7.0,87,0.00,,---,0.00,VWS V14.01,2013-01-05 03:35:00,
2013-01-04 22:40:00,28.5,25.1,30.15,SW,225,2.0,5.0,87,0.00,,---,0.00,VWS V14.01,2013-01-05 03:40:00,
2013-01-04 22:45:00,28.5,25.1,30.15,SW,225,2.0,4.0,87,0.00,,---,0.00,VWS V14.01,2013-01-05 03:45:00,
2013-01-04 22:47:00,28.4,25.0,30.15,SW,226,3.0,4.0,87,0.00,,,0.00,weatherlink.com 1.10,2013-01-05 03:47:00,
2013-01-04 22:50:00,28.4,25.0,30.15,SW,225,2.0,4.0,87,0.00,,---,0.00,VWS V14.01,2013-01-05 03:50:00,
2013-01-04 22:55:00,28.4,25.0,30.15,SW,225,2.0,6.0,87,0.00,,---,0.00,VWS V14.01,2013-01-05 03:55:00,
2013-01-04 23:00:00,28.4,25.0,30.15,SW,225,1.0,5.0,87,0.00,,---,0.00,VWS V14.01,2013-01-05 04:00:00,
2013-01-04 23:02:00,28.4,25.0,30.15,WSW,250,2.0,6.0,88,0.00,,,0.00,weatherlink.com 1.10,2013-01-05 04:02:00,
2013-01-04 23:05:00,28.4,25.0,30.16,SW,225,2.0,6.0,87,0.00,,---,0.00,VWS V14.01,2013-01-05 04:05:00,
2013-01-04 23:10:00,28.4,25.3,30.16,WSW,248,2.0,4.0,88,0.00,,---,0.00,VWS V14.01,2013-01-05 04:10:00,
2013-01-04 23:15:00,28.4,25.3,30.16,SW,225,2.0,3.0,88,0.00,,---,0.00,VWS V14.01,2013-01-05 04:15:00,
2013-01-04 23:17:00,28.3,25.0,30.16,SSW,205,2.0,3.0,88,0.00,,,0.00,weatherlink.com 1.10,2013-01-05 04:17:00,
2013-01-04 23:20:00,28.3,25.2,30.16,SW,225,2.0,4.0,88,0.00,,---,0.00,VWS V14.01,2013-01-05 04:20:00,
2013-01-04 23:25:00,28.3,25.2,30.16,SW,225,2.0,5.0,88,0.00,,---,0.00,VWS V14.01,2013-01-05 04:25:00,
2013-01-04 23:30:00,28.3,25.2,30.16,SW,225,1.0,3.0,88,0.00,,---,0.00,VWS V14.01,2013-01-05 04:30:00,
2013-01-04 23:32:00,28.2,25.0,30.16,SW,219,1.0,3.0,88,0.00,,,0.00,weatherlink.com 1.10,2013-01-05 04:32:00,
2013-01-04 23:35:00,28.1,25.3,30.16,SW,225,1.0,4.0,89,0.00,,---,0.00,VWS V14.01,2013-01-05 04:35:00,
2013-01-04 23:40:00,28.0,25.2,30.16,SW,225,1.0,4.0,89,0.00,,---,0.00,VWS V14.01,2013-01-05 04:40:00,
2013-01-04 23:45:00,27.9,25.1,30.16,SW,225,1.0,3.0,89,0.00,,---,0.00,VWS V14.01,2013-01-05 04:45:00,
2013-01-04 23:47:00,27.7,25.0,30.16,SW,229,2.0,3.0,89,0.00,,,0.00,weatherlink.com 1.10,2013-01-05 04:47:00,
2013-01-04 23:50:00,27.6,24.8,30.17,SW,225,1.0,2.0,89,0.00,,---,0.00,VWS V14.01,2013-01-05 04:50:00,
2013-01-04 23:55:00,27.5,25.0,30.17,SW,225,1.0,2.0,90,0.00,,---,0.00,VWS V14.01,2013-01-05 04:55:00,